Date String (YYYY-MM-DD hh:mm:ss) UTC,Instrument flags,Ambient pressure (hPa),Sample flow (lpm),Bypass flow (lpm),Sample temperature (°C),Ambient temperature (°C),ASC tube jacket temperature (°C),LED temperature (°C),Box temperature (°C),Sample RH (%),Span deviation,Mass concentration (μg/m³),Mass concentration (μg/m³),Mass concentration (μg/m³)
DateTimeUTC,F1_M11,P_M11,Q1_M11,Q2_M11,T1_M11,T2_M11,T3_M11,T4_M11,T5_M11,U1_M11,ZSPAN_M11,X2_M11,X0_M11,X1_M11
2022-02-06 16:00:00,,0834.6,4.99,0.00,22.9,22.2,00.0,31.8,24.7,11.2,0000.0,0002.62,0006.08,0001.89
2022-02-06 16:01:00,,0834.5,5.02,0.00,22.9,22.2,00.0,31.8,24.7,11.2,0000.0,0002.65,0005.59,0001.89
2022-02-06 16:02:00,,0834.6,4.98,0.00,22.9,22.2,00.0,31.8,24.8,11.2,0000.0,0002.71,0005.26,0001.89
2022-02-06 16:03:00,,0834.6,5.00,0.00,22.9,22.2,00.0,31.8,24.8,11.2,0000.0,0002.62,0005.01,0001.89
2022-02-06 16:04:00,,0834.6,5.01,0.00,22.9,22.2,00.0,31.8,24.8,11.2,0000.0,0002.62,0005.11,0001.89
2022-02-06 16:05:00,,0834.5,5.02,0.00,23.0,22.3,00.0,31.8,24.8,11.2,0000.0,0002.65,0005.20,0001.90
2022-02-06 16:06:00,,0834.6,4.98,0.00,23.0,22.3,00.0,31.8,24.8,11.3,0000.0,0002.69,0005.15,0001.92
2022-02-06 16:07:00,,0834.6,5.01,0.00,23.0,22.3,00.0,31.9,24.8,11.3,0000.0,0002.70,0006.29,0001.93
2022-02-06 16:08:00,,0834.6,4.99,0.00,23.0,22.3,00.0,31.9,24.8,11.3,0000.0,0002.65,0006.77,0001.92
2022-02-06 16:09:00,,0834.7,5.00,0.00,23.0,22.3,00.0,31.9,24.8,11.4,0000.0,0002.69,0006.76,0001.94
2022-02-06 16:10:00,,0834.7,5.01,0.00,23.0,22.3,00.0,31.9,24.9,11.4,0000.0,0002.67,0006.94,0001.95
2022-02-06 16:11:00,,0834.7,5.01,0.00,23.0,22.3,00.0,31.9,24.9,11.4,0000.0,0002.60,0007.23,0001.95
2022-02-06 16:12:00,,0834.7,4.99,0.00,23.0,22.3,00.0,31.9,24.9,11.4,0000.0,0002.59,0006.91,0001.96
2022-02-06 16:13:00,,0834.7,5.01,0.00,23.1,22.4,00.0,31.9,24.9,11.2,0000.0,0002.54,0007.36,0001.96
2022-02-06 16:14:00,,0834.7,5.00,0.00,23.1,22.4,00.0,31.9,24.9,11.0,0000.0,0002.51,0007.48,0001.95
2022-02-06 16:15:00,,0834.7,5.00,0.00,23.1,22.4,00.0,31.9,24.9,11.1,0000.0,0002.46,0007.41,0001.93
2022-02-06 16:16:00,,0834.7,5.00,0.00,23.1,22.4,00.0,32.0,25.0,11.1,0000.0,0002.43,0007.33,0001.92
2022-02-06 16:17:00,,0834.7,4.99,0.00,23.1,22.4,00.0,32.0,24.9,11.1,0000.0,0002.40,0007.23,0001.91
2022-02-06 16:18:00,,0834.8,5.01,0.00,23.1,22.4,00.0,32.0,24.9,11.2,0000.0,0002.42,0006.40,0001.89
2022-02-06 16:19:00,,0834.8,4.99,0.00,23.1,22.4,00.0,32.0,25.0,11.4,0000.0,0002.44,0005.60,0001.88
2022-02-06 16:20:00,,0834.8,5.02,0.00,23.1,22.5,00.0,32.0,25.0,11.2,0000.0,0002.41,0005.62,0001.86
2022-02-06 16:21:00,,0834.8,4.99,0.00,23.2,22.5,00.0,32.0,25.0,11.0,0000.0,0002.39,0005.41,0001.85
2022-02-06 16:22:00,,0834.8,5.01,0.00,23.2,22.5,00.0,32.0,25.0,11.0,0000.0,0002.38,0004.89,0001.83
2022-02-06 16:23:00,,0834.8,5.00,0.00,23.2,22.5,00.0,32.0,25.0,11.1,0000.0,0002.34,0004.82,0001.80
2022-02-06 16:24:00,,0834.8,4.99,0.00,23.2,22.5,00.0,32.1,25.0,11.2,0000.0,0002.31,0003.99,0001.79
2022-02-06 16:25:00,,0834.9,5.00,0.00,23.2,22.5,00.0,32.1,25.1,11.1,0000.0,0002.30,0003.81,0001.79
2022-02-06 16:26:00,,0834.8,5.02,0.00,23.2,22.5,00.0,32.1,25.1,11.0,0000.0,0002.30,0003.78,0001.79
2022-02-06 16:27:00,,0834.8,5.00,0.00,23.3,22.5,00.0,32.1,25.1,10.9,0000.0,0002.27,0003.74,0001.77
2022-02-06 16:28:00,,0834.8,4.99,0.00,23.3,22.5,00.0,32.1,25.1,10.7,0000.0,0002.27,0004.39,0001.75
2022-02-06 16:29:00,,0834.8,5.00,0.00,23.3,22.6,00.0,32.1,25.1,10.8,0000.0,0002.23,0004.64,0001.75
2022-02-06 16:30:00,,0834.8,4.99,0.00,23.3,22.6,00.0,32.1,25.1,10.9,0000.0,0002.19,0004.44,0001.74
2022-02-06 16:31:00,,0834.8,5.02,0.00,23.3,22.6,00.0,32.2,25.1,10.9,0000.0,0002.17,0004.36,0001.73
2022-02-06 16:32:00,,0834.8,4.99,0.00,23.3,22.5,00.0,32.2,25.1,11.1,0000.0,0002.16,0004.18,0001.75
2022-02-06 16:33:00,,0834.8,5.01,0.00,23.3,22.5,00.0,32.2,25.1,11.0,0000.0,0002.23,0004.63,0001.76
2022-02-06 16:34:00,,0834.8,4.99,0.00,23.3,22.5,00.0,32.2,25.1,10.9,0000.0,0002.29,0005.25,0001.78
2022-02-06 16:35:00,,0834.8,5.01,0.00,23.3,22.5,00.0,32.2,25.0,11.0,0000.0,0002.31,0005.26,0001.80
2022-02-06 16:36:00,,0834.8,4.99,0.00,23.3,22.5,00.0,32.2,25.0,10.9,0000.0,0002.32,0005.31,0001.80
2022-02-06 16:37:00,,0834.8,5.01,0.00,23.2,22.4,00.0,32.2,24.9,11.0,0000.0,0002.33,0005.29,0001.82
2022-02-06 16:38:00,,0834.8,5.00,0.00,23.2,22.4,00.0,32.2,24.9,10.9,0000.0,0002.35,0005.27,0001.84
2022-02-06 16:39:00,,0834.9,4.99,0.00,23.2,22.3,00.0,32.2,24.9,11.1,0000.0,0002.37,0004.69,0001.88
2022-02-06 16:40:00,,0834.8,5.00,0.00,23.1,22.3,00.0,32.2,24.9,11.2,0000.0,0002.40,0005.15,0001.91
2022-02-06 16:41:00,,0834.9,5.00,0.00,23.1,22.3,00.0,32.1,24.8,11.3,0000.0,0002.42,0005.80,0001.95
2022-02-06 16:42:00,,0834.9,5.00,0.00,23.1,22.2,00.0,32.1,24.8,11.4,0000.0,0002.42,0006.38,0001.98
2022-02-06 16:43:00,,0834.9,5.01,0.00,23.1,22.2,00.0,32.1,24.8,11.0,0000.0,0002.44,0006.99,0001.97
2022-02-06 16:44:00,,0834.9,4.98,0.00,23.0,22.2,00.0,32.1,24.7,11.3,0000.0,0002.36,0006.52,0001.98
2022-02-06 16:45:00,,0834.9,5.02,0.00,23.0,22.2,00.0,32.1,24.7,11.2,0000.0,0002.31,0005.84,0001.98
2022-02-06 16:46:00,,0834.9,4.99,0.00,23.0,22.2,00.0,32.1,24.7,11.2,0000.0,0002.29,0005.79,0001.99
2022-02-06 16:47:00,,0834.9,5.01,0.00,23.0,22.1,00.0,32.1,24.7,11.1,0000.0,0002.28,0005.73,0001.99
2022-02-06 16:48:00,,0834.9,5.00,0.00,22.9,22.1,00.0,32.0,24.6,11.2,0000.0,0002.29,0006.25,0001.99
2022-02-06 16:49:00,,0834.9,5.00,0.00,22.9,22.1,00.0,32.0,24.6,11.1,0000.0,0002.31,0006.94,0001.98
2022-02-06 16:50:00,,0834.9,5.01,0.00,22.9,22.1,00.0,32.0,24.6,11.3,0000.0,0002.30,0006.95,0001.96
2022-02-06 16:51:00,,0834.9,5.01,0.00,22.9,22.1,00.0,32.0,24.6,11.3,0000.0,0002.33,0006.31,0001.96
2022-02-06 16:52:00,,0835.0,4.99,0.00,22.9,22.2,00.0,32.0,24.6,11.3,0000.0,0002.34,0005.99,0001.95
2022-02-06 16:53:00,,0834.9,5.01,0.00,22.9,22.2,00.0,32.0,24.7,11.5,0000.0,0002.37,0005.69,0001.94
2022-02-06 16:54:00,,0834.9,4.99,0.00,22.9,22.2,00.0,32.0,24.7,11.5,0000.0,0002.39,0004.98,0001.95
2022-02-06 16:55:00,,0834.9,5.01,0.00,22.9,22.2,00.0,32.0,24.7,11.2,0000.0,0002.39,0005.03,0001.95
2022-02-06 16:56:00,,0834.9,4.99,0.00,22.9,22.2,00.0,31.9,24.7,11.3,0000.0,0002.40,0005.05,0001.95
2022-02-06 16:57:00,,0834.9,5.01,0.00,23.0,22.2,00.0,31.9,24.7,11.4,0000.0,0002.40,0005.06,0001.96
2022-02-06 16:58:00,,0834.9,5.00,0.00,23.0,22.3,00.0,32.0,24.8,11.2,0000.0,0002.41,0005.12,0001.96
2022-02-06 16:59:00,,0834.9,5.01,0.00,23.0,22.3,00.0,32.0,24.8,11.0,0000.0,0002.38,0004.75,0001.94
